Regional Weather Roundup
Issued by NWS Nashville, TN

Home | Current Version | Previous Version | Text Only | Print | Product List | Glossary On
Versions: 1 2 3 4 5 6 7 8 9 10 11 12 13 14 15 16 17 18 19 20 21 22 23 24 25 26 27
000
ASUS44 KOHX 270910
RWROHX
MIDDLE TENNESSEE HOURLY WEATHER ROUNDUP
NATIONAL WEATHER SERVICE NASHVILLE TN
400 AM CDT FRI APR 27 2018

NOTE: "FAIR" INDICATES FEW OR NO CLOUDS BELOW 12,000 FEET WITH
NO SIGNIFICANT WEATHER AND/OR OBSTRUCTIONS TO VISIBILITY.

* THESE REPORTS ARE NOT UNDER NWS QUALITY CONTROL AND MAY NOT
  REPORT WEATHER SUCH AS PRECIPITATION AND FOG.


TNZ005>011-023>034-057-059-062>066-078-080-271000
...NORTHERN MIDDLE TENNESSEE...

CITY           SKY/WX    TMP DP  RH WIND       PRES   REMARKS
CLARKSVILLE      N/A     46  44  93 W3        29.88R
CROSSVILLE     MOCLDY    47  46  97 W6        29.87S FOG
GALLATIN       CLEAR     48  46  93 CALM      29.90S FOG
LEBANON        PTCLDY    48  48 100 CALM      29.86S FOG
LIVINGSTON     FOG       50  50 100 SW7       29.85S VSB 0
NASHVILLE        N/A     50  48  93 W6        29.87S
PORTLAND       PTCLDY    50  50 100 W5        29.86S FOG
SMYRNA         FOG       46  46 100 SE3       29.89S VSB 1/4
SPARTA         CLOUDY    52  52 100 CALM      29.87S FOG
SPRINGFIELD    FOG       46  46 100 W5        29.87R VSB 0
WEST NASHVILLE CLEAR     48  48 100 W3        29.86S
$$
TNZ056-058-060-061-075>077-079-093>097-271000
...SOUTHERN MIDDLE TENNESSEE...

CITY           SKY/WX    TMP DP  RH WIND       PRES   REMARKS
COLUMBIA       PTCLDY    46  46 100 CALM      29.88S FOG
FAYETTEVILLE   FOG       50  50 100 CALM      29.89S VSB 1/2
LEWISBURG      CLEAR     45  45 100 CALM      29.89R FOG
MCMINNVILLE    FOG       50  50 100 CALM      29.88S VSB 1/2
MURFREESBORO   FOG       46  46 100 CALM      29.87S VSB 1/4
PULASKI        FOG       46  46 100 CALM      29.90S VSB 0
SHELBYVILLE    FOG       48  48 100 CALM      29.88S VSB 1/4
TULLAHOMA      CLOUDY    48  48 100 CALM      29.88S FOG
WINCHESTER     CLOUDY    50  48  93 CALM      29.89S
$$


...KEY TO REMARKS...
VSB - VISIBILITY IN MILES
WCI - WIND CHILL INDEX
HX  - HEAT INDEX





USA.gov is the U.S. government's official web portal to all federal, state and local government web resources and services.